OpenBCM V1.13 (Linux)

Packet Radio Mailbox

DB0FHN

[JN59NK Nuernberg]

 Login: GUEST





  
UA9FBV > KEPS     26.11.04 10:48l 207 Lines 5449 Bytes #999 (0) @ AMSAT
BID : ORB04330.W
Read: GUEST
Subj: Orbital Elements  04330.WEATHER
Path: DB0FHN<DB0RGB<OK0PPL<DB0RES<ER3KAZ<UA9FBV
Sent: 041126/0840Z @:UA9FBV.PRM.RUS.AS #:11658 [Perm] GATEWAY $:ORB04330.W
From: UA9FBV@UA9FBV.PRM.RUS.AS
To  : KEPS@AMSAT


HR AMSAT ORBITAL ELEMENTS FOR WEATHER SATELLITES
FROM WA5QGD FORT WORTH,TX November 25, 2004
SEND SUBSCRIBE/UNSUBSCRIBE TO majordomo@amsat.org ONLY
BID: ORB04330.W
TO ALL RADIO AMATEURS BT

Satellite: NOAA-10
Catalog number: 16969
Epoch time:      04330.25275201
Element set:     485
Inclination:       98.7617 deg
RA of node:       329.5696 deg
Eccentricity:    0.0012491
Arg of perigee:    11.0430 deg
Mean anomaly:     349.1028 deg
Mean motion:   14.27227052 rev/day
Decay rate:       1.65e-06 rev/day^2
Epoch rev:           94600
Checksum:              287

Satellite: NOAA-11
Catalog number: 19531
Epoch time:      04330.32835599
Element set:     342
Inclination:       98.8593 deg
RA of node:        53.0965 deg
Eccentricity:    0.0012007
Arg of perigee:   163.9831 deg
Mean anomaly:     196.1724 deg
Mean motion:   14.14739186 rev/day
Decay rate:      -1.92e-06 rev/day^2
Epoch rev:           83410
Checksum:              308

Satellite: NOAA-12
Catalog number: 21263
Epoch time:      04330.26822900
Element set:     829
Inclination:       98.6842 deg
RA of node:       316.4134 deg
Eccentricity:    0.0012064
Arg of perigee:   303.8286 deg
Mean anomaly:      56.1740 deg
Mean motion:   14.25432803 rev/day
Decay rate:       1.54e-06 rev/day^2
Epoch rev:           70319
Checksum:              272

Satellite: MET-3/5
Catalog number: 21655
Epoch time:      04330.80576690
Element set:     678
Inclination:       82.5546 deg
RA of node:       302.3333 deg
Eccentricity:    0.0013838
Arg of perigee:    26.7207 deg
Mean anomaly:     333.4651 deg
Mean motion:   13.16999351 rev/day
Decay rate:        5.1e-07 rev/day^2
Epoch rev:           63854
Checksum:              308

Satellite: MET-2/21
Catalog number: 22782
Epoch time:      04330.26456061
Element set:      64
Inclination:       82.5503 deg
RA of node:        62.7500 deg
Eccentricity:    0.0021659
Arg of perigee:   338.9904 deg
Mean anomaly:      21.0375 deg
Mean motion:   13.83575793 rev/day
Decay rate:        8.8e-07 rev/day^2
Epoch rev:           56737
Checksum:              302

Satellite: OKEAN-4
Catalog number: 23317
Epoch time:      04330.39005220
Element set:     481
Inclination:       82.5389 deg
RA of node:        87.3840 deg
Eccentricity:    0.0024005
Arg of perigee:    87.6301 deg
Mean anomaly:     272.7664 deg
Mean motion:   14.81977576 rev/day
Decay rate:       8.45e-06 rev/day^2
Epoch rev:           54572
Checksum:              304

Satellite: NOAA-14
Catalog number: 23455
Epoch time:      04330.29119555
Element set:     364
Inclination:       99.1217 deg
RA of node:         8.9987 deg
Eccentricity:    0.0009220
Arg of perigee:   210.7369 deg
Mean anomaly:     149.3254 deg
Mean motion:   14.13512361 rev/day
Decay rate:       1.28e-06 rev/day^2
Epoch rev:           51069
Checksum:              292

Satellite: SICH-1
Catalog number: 23657
Epoch time:      04330.40934315
Element set:     284
Inclination:       82.5304 deg
RA of node:       228.1745 deg
Eccentricity:    0.0025981
Arg of perigee:    73.1802 deg
Mean anomaly:     287.2248 deg
Mean motion:   14.81002291 rev/day
Decay rate:       6.77e-06 rev/day^2
Epoch rev:           49779
Checksum:              301

Satellite: NOAA-15
Catalog number: 25338
Epoch time:      04330.16223550
Element set:     812
Inclination:       98.5177 deg
RA of node:       338.6910 deg
Eccentricity:    0.0009819
Arg of perigee:   232.4101 deg
Mean anomaly:     127.6201 deg
Mean motion:   14.24469243 rev/day
Decay rate:        7.8e-07 rev/day^2
Epoch rev:           33970
Checksum:              285

Satellite: RESURS
Catalog number: 25394
Epoch time:      04329.88985850
Element set:     955
Inclination:       98.5658 deg
RA of node:        38.6613 deg
Eccentricity:    0.0002143
Arg of perigee:    58.2614 deg
Mean anomaly:     301.8770 deg
Mean motion:   14.24036711 rev/day
Decay rate:        4.0e-07 rev/day^2
Epoch rev:           33137
Checksum:              301

Satellite: FENGYUN1
Catalog number: 25730
Epoch time:      04329.59957650
Element set:     287
Inclination:       98.6061 deg
RA of node:       333.6089 deg
Eccentricity:    0.0013785
Arg of perigee:   327.1905 deg
Mean anomaly:      32.8430 deg
Mean motion:   14.11782856 rev/day
Decay rate:       -9.5e-07 rev/day^2
Epoch rev:           28564
Checksum:              325

Satellite: OKEAN-0
Catalog number: 25860
Epoch time:      04330.67769016
Element set:     288
Inclination:       97.7801 deg
RA of node:       359.2969 deg
Eccentricity:    0.0001959
Arg of perigee:   114.3841 deg
Mean anomaly:     245.7592 deg
Mean motion:   14.73157335 rev/day
Decay rate:       2.47e-06 rev/day^2
Epoch rev:           28804
Checksum:              330

Satellite: NOAA-16
Catalog number: 26536
Epoch time:      04330.17064175
Element set:     116
Inclination:       98.9843 deg
RA of node:       281.7613 deg
Eccentricity:    0.0009871
Arg of perigee:   285.3026 deg
Mean anomaly:      74.7055 deg
Mean motion:   14.12177737 rev/day
Decay rate:      -1.62e-06 rev/day^2
Epoch rev:           21526
Checksum:              302

Satellite: NOAA-17
Catalog number: 27453
Epoch time:      04330.32950951
Element set:     137
Inclination:       98.6860 deg
RA of node:        40.7154 deg
Eccentricity:    0.0010967
Arg of perigee:   287.2478 deg
Mean anomaly:      72.7519 deg
Mean motion:   14.23598857 rev/day
Decay rate:        6.0e-07 rev/day^2
Epoch rev:           12583
Checksum:              322



Read previous mail | Read next mail


 27.06.2026 15:29:26lGo back Go up